Tracking 25689 objects as of 7-Jul-2022
HD Live streaming from Space Station
objects crossing your sky now

FENGYUN 1C DEB

Track FENGYUN 1C DEB now!
10-day predictions


NORAD ID: 37069
Int'l Code: 1999-025EFD
Perigee: 816.7 km
Apogee: 1,496.7 km
Inclination: 95.9 °
Period: 108.3 minutes
Semi major axis: 7527 km
RCS: 0.0144 m2 (small)
Launch date: May 10, 1999
Source: People's Republic of China (PRC)
Launch site: Taiyaun Space Center, China (TSC)

Note: This is SATELLITE DEBRIS
aabbcc
Your satellite tracking list
Your tracking list is empty




NASA's NSSDC Master Catalog

Two Line Element Set (TLE):
1 37069U 99025EFD 22183.16755542 -.00000044  00000-0 -34955-4 0  9991
2 37069  95.8577 314.4668 0451608  22.1693 339.8306 13.29259159709258
Source of the keplerian elements: AFSPC